Location: Newark
(37.3333°N, 6.0167°W)
Time: 15:17:56
(UTC+00:00)

LightSail 2 - Pass Details

Date: 15 November 2019
Orbit: 696 x 730 km, 24.0° (Epoch: 14 December)

Event Time Altitude Azimuth Distance (km) Brightness Sun altitude
Exits shadow 04:53:08 18° 189° (S) 1,724 7.0 -25.8°
Maximum altitude 04:53:33 18° 183° (S) 1,716 7.1 -25.7°
Drops below altitude 10° 04:57:05 10° 140° (SE) 2,212 8.2 -25.0°
Sets 05:00:13 0° 122° (ESE) 3,134 9.5 -24.4°
